| time (UTC) | temp F | wind direction | speed knots | gust knots | rain 1hr in | rain 24hr in | rain mn in | humidity % | barometer mb |
| 20260507201518 | 73 | 248 | 2.6 | 5.2 | 0.00 | 0.00 | 0.00 | 70 | 1017.0 |
| 20260507200516 | 73 | 248 | 1.7 | 5.2 | 0.00 | 0.00 | 0.00 | 71 | 1017.0 |
| 20260507195517 | 73 | 270 | 1.7 | 7.0 | 0.00 | 0.00 | 0.00 | 71 | 1016.9 |
| 20260507194536 | 73 | 225 | 1.7 | 5.2 | 0.00 | 0.00 | 0.00 | 70 | 1017.1 |
| 20260507193516 | 73 | 270 | 2.6 | 6.1 | 0.00 | 0.00 | 0.00 | 71 | 1017.1 |
| 20260507192516 | 72 | 225 | 2.6 | 6.1 | 0.00 | 0.00 | 0.00 | 71 | 1017.3 |
| 20260507191517 | 73 | 248 | 1.7 | 4.3 | 0.00 | 0.00 | 0.00 | 71 | 1017.3 |
| 20260507190516 | 72 | 270 | 1.7 | 4.3 | 0.00 | 0.00 | 0.00 | 71 | 1017.3 |
| 20260507185516 | 72 | 270 | 1.7 | 5.2 | 0.00 | 0.00 | 0.00 | 71 | 1017.5 |
| 20260507184516 | 72 | 225 | 1.7 | 4.3 | 0.00 | 0.00 | 0.00 | 71 | 1017.6 |
| 20260507183516 | 72 | 248 | 2.6 | 6.1 | 0.00 | 0.00 | 0.00 | 71 | 1017.6 |
| 20260507182516 | 73 | 225 | 1.7 | 4.3 | 0.00 | 0.00 | 0.00 | 71 | 1017.6 |
| 20260507181516 | 72 | 225 | 1.7 | 4.3 | 0.00 | 0.00 | 0.00 | 71 | 1017.6 |
| 20260507180516 | 72 | 248 | 1.7 | 3.5 | 0.00 | 0.00 | 0.00 | 70 | 1017.8 |
| 20260507175516 | 72 | 270 | 1.7 | 3.5 | 0.00 | 0.00 | 0.00 | 70 | 1017.8 |
| 20260507174516 | 72 | 225 | 0.9 | 3.5 | 0.00 | 0.00 | 0.00 | 71 | 1017.9 |
| 20260507173516 | 71 | 270 | 0.9 | 2.6 | 0.00 | 0.00 | 0.00 | 72 | 1017.9 |
| 20260507172516 | 70 | 270 | 0.9 | 3.5 | 0.00 | 0.00 | 0.00 | 74 | 1017.8 |
| 20260507171536 | 70 | 270 | 1.7 | 2.6 | 0.00 | 0.00 | 0.00 | 73 | 1017.8 |
| 20260507170516 | 70 | 225 | 0.9 | 3.5 | 0.00 | 0.00 | 0.00 | 74 | 1017.7 |
| 20260507165516 | 69 | 270 | 0.9 | 4.3 | 0.00 | 0.00 | 0.00 | 75 | 1017.7 |
| 20260507164516 | 69 | 248 | 0.9 | 2.6 | 0.00 | 0.00 | 0.00 | 76 | 1018.0 |
| 20260507163536 | 68 | 270 | 0.9 | 2.6 | 0.00 | 0.00 | 0.00 | 77 | 1018.2 |
| 20260507162517 | 68 | 203 | 0.9 | 2.6 | 0.00 | 0.00 | 0.00 | 78 | 1018.1 |
| 20260507161516 | 68 | 270 | 0.9 | 2.6 | 0.00 | 0.00 | 0.00 | 78 | 1018.1 |
| 20260507160516 | 68 | 203 | 0.9 | 2.6 | 0.00 | 0.00 | 0.00 | 78 | 1018.2 |
| 20260507155536 | 67 | 225 | 0.9 | 2.6 | 0.00 | 0.00 | 0.00 | 80 | 1018.4 |
| 20260507154536 | 66 | 0.0 | 1.7 | 0.00 | 0.00 | 0.00 | 80 | 1018.5 | |
| 20260507153515 | 65 | 0.0 | 0.9 | 0.00 | 0.00 | 0.00 | 82 | 1018.4 | |
| 20260507152516 | 64 | 0.0 | 0.9 | 0.00 | 0.00 | 0.00 | 83 | 1018.4 | |
| 20260507151516 | 62 | 0.0 | 0.9 | 0.00 | 0.00 | 0.00 | 84 | 1018.4 | |
| 20260507150516 | 61 | 0.0 | 0.0 | 0.00 | 0.00 | 0.00 | 87 | 1018.3 | |
| 20260507145516 | 59 | 0.0 | 0.0 | 0.00 | 0.00 | 0.00 | 91 | 1018.2 | |
| 20260507144516 | 57 | 0.0 | 0.0 | 0.00 | 0.00 | 0.00 | 93 | 1018.2 | |
| 20260507143516 | 56 | 0.0 | 0.0 | 0.00 | 0.00 | 0.00 | 94 | 1018.2 | |
| 20260507142515 | 54 | 0.0 | 0.0 | 0.00 | 0.00 | 0.00 | 94 | 1018.1 | |
| 20260507141516 | 54 | 0.0 | 0.0 | 0.00 | 0.00 | 0.00 | 94 | 1018.0 | |
| 20260507140517 | 53 | 0.0 | 0.9 | 0.00 | 0.00 | 0.00 | 94 | 1018.1 | |
| 20260507135518 | 53 | 0.0 | 0.0 | 0.00 | 0.00 | 0.00 | 94 | 1018.0 | |
| 20260507134519 | 52 | 0.0 | 0.0 | 0.00 | 0.00 | 0.00 | 94 | 1017.9 | |
| 20260507133518 | 52 | 0.0 | 0.0 | 0.00 | 0.00 | 0.00 | 94 | 1017.8 | |
| 20260507132519 | 52 | 0.0 | 0.0 | 0.00 | 0.00 | 0.00 | 94 | 1017.8 | |
| 20260507131559 | 52 | 0.0 | 0.0 | 0.00 | 0.00 | 0.00 | 94 | 1017.7 | |
| 20260507130517 | 52 | 0.0 | 0.9 | 0.00 | 0.00 | 0.00 | 94 | 1017.7 | |
| 20260507125517 | 52 | 0.0 | 0.0 | 0.00 | 0.00 | 0.00 | 94 | 1017.6 | |
| 20260507124517 | 52 | 0.0 | 0.9 | 0.00 | 0.00 | 0.00 | 93 | 1017.5 | |
| 20260507123537 | 52 | 0.0 | 0.0 | 0.00 | 0.00 | 0.00 | 93 | 1017.4 | |
| 20260507122518 | 52 | 0.0 | 0.0 | 0.00 | 0.00 | 0.00 | 93 | 1017.4 | |
| 20260507121517 | 53 | 0.0 | 0.0 | 0.00 | 0.00 | 0.00 | 93 | 1017.3 | |
| 20260507120537 | 53 | 0.0 | 0.0 | 0.00 | 0.00 | 0.00 | 93 | 1017.4 | |
| 20260507115517 | 53 | 0.0 | 0.0 | 0.00 | 0.00 | 0.00 | 93 | 1017.2 | |
| 20260507114517 | 53 | 0.0 | 0.9 | 0.00 | 0.00 | 0.00 | 94 | 1017.4 | |
| 20260507113518 | 53 | 0.0 | 0.0 | 0.00 | 0.00 | 0.00 | 94 | 1017.3 | |
| 20260507112518 | 53 | 0.0 | 0.0 | 0.00 | 0.00 | 0.00 | 94 | 1017.4 | |
| 20260507111518 | 53 | 0.0 | 0.0 | 0.00 | 0.00 | 0.00 | 94 | 1017.5 | |
| 20260507110517 | 53 | 0.0 | 0.0 | 0.00 | 0.00 | 0.00 | 94 | 1017.6 | |
| 20260507105517 | 53 | 0.0 | 0.0 | 0.00 | 0.00 | 0.00 | 94 | 1017.6 | |
| 20260507104517 | 53 | 0.0 | 0.0 | 0.00 | 0.00 | 0.00 | 94 | 1017.6 | |
| 20260507103537 | 53 | 0.0 | 0.0 | 0.00 | 0.00 | 0.00 | 94 | 1017.7 | |
| 20260507102538 | 53 | 0.0 | 0.0 | 0.00 | 0.00 | 0.00 | 94 | 1017.9 | |
| 20260507101517 | 54 | 0.0 | 0.0 | 0.00 | 0.00 | 0.00 | 94 | 1017.8 | |
| 20260507100537 | 54 | 0.0 | 0.0 | 0.00 | 0.00 | 0.00 | 94 | 1017.8 | |
| 20260507095517 | 54 | 0.0 | 0.0 | 0.00 | 0.00 | 0.00 | 94 | 1017.9 | |
| 20260507094517 | 54 | 0.0 | 0.0 | 0.00 | 0.00 | 0.00 | 94 | 1017.8 | |
| 20260507093517 | 54 | 0.0 | 0.0 | 0.00 | 0.00 | 0.00 | 94 | 1017.9 | |
| 20260507092517 | 54 | 0.0 | 0.0 | 0.00 | 0.00 | 0.00 | 94 | 1018.0 | |
| 20260507091517 | 54 | 0.0 | 0.0 | 0.00 | 0.00 | 0.00 | 94 | 1017.8 | |
| 20260507090517 | 54 | 0.0 | 0.0 | 0.00 | 0.00 | 0.00 | 94 | 1017.8 | |
| 20260507085517 | 54 | 0.0 | 0.0 | 0.00 | 0.00 | 0.00 | 94 | 1018.0 | |
| 20260507084517 | 54 | 0.0 | 0.0 | 0.00 | 0.00 | 0.00 | 93 | 1018.2 | |
| 20260507083517 | 55 | 0.0 | 0.0 | 0.00 | 0.00 | 0.00 | 93 | 1018.1 | |
| 20260507082536 | 55 | 0.0 | 0.0 | 0.00 | 0.00 | 0.00 | 93 | 1018.3 | |
| 20260507081517 | 55 | 0.0 | 0.0 | 0.00 | 0.00 | 0.00 | 93 | 1018.3 | |
| 20260507080537 | 55 | 0.0 | 0.0 | 0.00 | 0.00 | 0.00 | 93 | 1018.4 | |
| 20260507075516 | 55 | 0.0 | 0.0 | 0.00 | 0.00 | 0.00 | 93 | 1018.4 | |
| 20260507074516 | 55 | 0.0 | 0.0 | 0.00 | 0.00 | 0.00 | 92 | 1018.5 | |
| 20260507073516 | 56 | 0.0 | 0.0 | 0.00 | 0.00 | 0.00 | 92 | 1018.5 | |
| 20260507072517 | 56 | 0.0 | 0.9 | 0.00 | 0.00 | 0.00 | 92 | 1018.7 | |
| 20260507071517 | 56 | 0.0 | 0.0 | 0.00 | 0.00 | 0.00 | 92 | 1018.7 | |
| 20260507070518 | 56 | 0.0 | 0.0 | 0.00 | 0.00 | 0.00 | 91 | 1018.7 | |
| 20260507065516 | 56 | 0.0 | 0.0 | 0.00 | 0.00 | 0.00 | 91 | 1018.8 | |
| 20260507064516 | 56 | 0.0 | 0.0 | 0.00 | 0.00 | 0.00 | 91 | 1018.8 | |
| 20260507063516 | 57 | 0.0 | 0.0 | 0.00 | 0.00 | 0.00 | 91 | 1018.7 | |
| 20260507062517 | 58 | 0.0 | 0.0 | 0.00 | 0.00 | 0.00 | 91 | 1018.7 | |
| 20260507061536 | 58 | 0.0 | 0.0 | 0.00 | 0.00 | 0.00 | 91 | 1018.7 | |
| 20260507060536 | 58 | 0.0 | 0.0 | 0.00 | 0.00 | 0.00 | 89 | 1018.8 | |
| 20260507055517 | 58 | 0.0 | 0.0 | 0.00 | 0.00 | 0.00 | 89 | 1018.8 | |
| 20260507054516 | 59 | 0.0 | 0.0 | 0.00 | 0.00 | 0.00 | 89 | 1018.8 | |
| 20260507053516 | 59 | 0.0 | 0.0 | 0.00 | 0.00 | 0.00 | 89 | 1018.9 | |
| 20260507052516 | 60 | 0.0 | 0.0 | 0.00 | 0.00 | 0.00 | 89 | 1018.9 | |
| 20260507051517 | 60 | 0.0 | 0.0 | 0.00 | 0.00 | 0.00 | 89 | 1018.9 | |
| 20260507050516 | 60 | 0.0 | 0.9 | 0.00 | 0.00 | 0.00 | 89 | 1018.7 | |
| 20260507045516 | 60 | 0.0 | 0.9 | 0.00 | 0.00 | 0.00 | 89 | 1018.7 | |
| 20260507044516 | 60 | 0.0 | 1.7 | 0.00 | 0.00 | 0.00 | 88 | 1018.7 | |
| 20260507043516 | 61 | 0.0 | 0.0 | 0.00 | 0.00 | 0.00 | 88 | 1018.7 | |
| 20260507042517 | 61 | 0.0 | 1.7 | 0.00 | 0.00 | 0.00 | 88 | 1018.8 | |
| 20260507041537 | 61 | 0.0 | 1.7 | 0.00 | 0.00 | 0.00 | 88 | 1018.7 | |
| 20260507040517 | 61 | 0.0 | 0.9 | 0.00 | 0.00 | 0.00 | 87 | 1018.6 | |
| 20260507035517 | 61 | 0.0 | 0.9 | 0.00 | 0.00 | 0.00 | 87 | 1018.7 | |
| 20260507034517 | 62 | 0.0 | 2.6 | 0.00 | 0.00 | 0.00 | 86 | 1018.5 | |
| 20260507033517 | 62 | 0.0 | 0.9 | 0.00 | 0.00 | 0.00 | 86 | 1018.4 | |
| 20260507032516 | 62 | 225 | 0.9 | 1.7 | 0.00 | 0.00 | 0.00 | 86 | 1018.4 |
| 20260507031515 | 62 | 225 | 0.9 | 1.7 | 0.00 | 0.00 | 0.00 | 85 | 1018.4 |
| 20260507030556 | 63 | 0.0 | 1.7 | 0.00 | 0.00 | 0.00 | 85 | 1018.3 | |
| 20260507025516 | 63 | 0.0 | 1.7 | 0.00 | 0.00 | 0.00 | 84 | 1018.2 | |
| 20260507024516 | 64 | 270 | 0.9 | 3.5 | 0.00 | 0.00 | 0.00 | 83 | 1018.0 |
| 20260507023515 | 65 | 248 | 0.9 | 1.7 | 0.00 | 0.00 | 0.00 | 81 | 1017.9 |
| 20260507022516 | 66 | 225 | 0.9 | 3.5 | 0.00 | 0.00 | 0.00 | 79 | 1017.9 |
| 20260507021518 | 66 | 248 | 0.9 | 1.7 | 0.00 | 0.00 | 0.00 | 77 | 1017.8 |
| 20260507020518 | 67 | 248 | 0.9 | 2.6 | 0.00 | 0.00 | 0.00 | 78 | 1017.9 |
| 20260507015518 | 67 | 270 | 1.7 | 2.6 | 0.00 | 0.00 | 0.00 | 78 | 1017.8 |
| 20260507014538 | 68 | 270 | 1.7 | 3.5 | 0.00 | 0.00 | 0.00 | 77 | 1017.7 |
| 20260507013537 | 69 | 225 | 1.7 | 3.5 | 0.00 | 0.00 | 0.00 | 74 | 1017.8 |
| 20260507012517 | 69 | 225 | 2.6 | 4.3 | 0.00 | 0.00 | 0.00 | 73 | 1017.8 |
| 20260507011517 | 70 | 225 | 1.7 | 6.1 | 0.00 | 0.00 | 0.00 | 69 | 1017.7 |
| 20260507010517 | 71 | 225 | 2.6 | 7.0 | 0.00 | 0.00 | 0.00 | 65 | 1017.6 |
| 20260507005517 | 72 | 225 | 1.7 | 4.3 | 0.00 | 0.00 | 0.00 | 62 | 1017.4 |
| 20260507004517 | 72 | 225 | 2.6 | 6.1 | 0.00 | 0.00 | 0.00 | 60 | 1017.5 |
| 20260507003517 | 73 | 270 | 1.7 | 4.3 | 0.00 | 0.00 | 0.00 | 59 | 1017.5 |
| 20260507002517 | 73 | 270 | 0.9 | 2.6 | 0.00 | 0.00 | 0.00 | 58 | 1017.4 |
| 20260507001517 | 73 | 270 | 0.9 | 3.5 | 0.00 | 0.00 | 0.00 | 58 | 1017.3 |
| 20260507000517 | 73 | 225 | 2.6 | 6.1 | 0.00 | 0.00 | 0.00 | 58 | 1017.4 |
| 20260506235517 | 72 | 270 | 1.7 | 5.2 | 0.00 | 0.00 | 0.00 | 61 | 1017.2 |
| 20260506234518 | 72 | 248 | 2.6 | 6.1 | 0.00 | 0.00 | 0.00 | 62 | 1017.3 |
| 20260506233539 | 72 | 270 | 1.7 | 4.3 | 0.00 | 0.00 | 0.00 | 65 | 1017.3 |
| 20260506232517 | 72 | 270 | 2.6 | 7.0 | 0.00 | 0.00 | 0.00 | 65 | 1017.3 |
| 20260506231537 | 72 | 270 | 2.6 | 7.0 | 0.00 | 0.00 | 0.00 | 65 | 1017.4 |
| 20260506230517 | 72 | 225 | 3.5 | 6.1 | 0.00 | 0.00 | 0.00 | 65 | 1017.5 |
| 20260506225517 | 72 | 270 | 2.6 | 6.1 | 0.00 | 0.00 | 0.00 | 65 | 1017.4 |
| 20260506224537 | 72 | 270 | 2.6 | 5.2 | 0.00 | 0.00 | 0.00 | 65 | 1017.5 |
| 20260506223517 | 72 | 225 | 3.5 | 7.8 | 0.00 | 0.00 | 0.00 | 65 | 1017.6 |
| 20260506222518 | 72 | 248 | 2.6 | 7.0 | 0.00 | 0.00 | 0.00 | 65 | 1017.7 |
| 20260506221516 | 72 | 225 | 2.6 | 7.0 | 0.00 | 0.00 | 0.00 | 66 | 1017.6 |
| 20260506220519 | 73 | 270 | 1.7 | 4.3 | 0.00 | 0.00 | 0.00 | 67 | 1017.8 |
| 20260506215537 | 72 | 270 | 2.6 | 7.0 | 0.00 | 0.00 | 0.00 | 67 | 1018.0 |
| 20260506214518 | 72 | 270 | 3.5 | 9.6 | 0.00 | 0.00 | 0.00 | 67 | 1017.9 |
| 20260506213538 | 71 | 225 | 3.5 | 7.8 | 0.00 | 0.00 | 0.00 | 67 | 1018.0 |
| 20260506212516 | 72 | 270 | 3.5 | 7.8 | 0.00 | 0.00 | 0.00 | 66 | 1018.3 |
| 20260506211516 | 72 | 248 | 3.5 | 7.0 | 0.00 | 0.00 | 0.00 | 66 | 1018.2 |
| 20260506210517 | 71 | 225 | 2.6 | 6.1 | 0.00 | 0.00 | 0.00 | 68 | 1018.3 |
| 20260506205517 | 72 | 270 | 2.6 | 6.1 | 0.00 | 0.00 | 0.00 | 67 | 1018.4 |
| 20260506204517 | 72 | 225 | 2.6 | 6.1 | 0.00 | 0.00 | 0.00 | 64 | 1018.5 |
| 20260506203557 | 72 | 270 | 2.6 | 7.8 | 0.00 | 0.00 | 0.00 | 65 | 1018.5 |
| 20260506202517 | 73 | 225 | 2.6 | 5.2 | 0.00 | 0.00 | 0.00 | 66 | 1018.7 |